Location: ?????????
(41.2286°N, 23.0068°E)
Time: 08:25:06
(UTC+00:00)

Cosmos 1190 Rocket - Pass Details

Date: 08 November 2025
Orbit: 752 x 776 km, 74.1° (Epoch: 05 December)

Event Time Altitude Azimuth Distance (km) Brightness Sun altitude
Rises 04:33:41 0° 339° (NNW) 3,257 6.9 -6.9°
Reaches altitude 10° 04:36:05 10° 338° (NNW) 2,323 6.1 -6.4°
Maximum altitude 04:41:22 79° 253° (WSW) 786 4.0 -5.5°
Drops below altitude 10° 04:46:34 10° 167° (SSE) 2,292 6.9 -4.6°
Sets 04:48:55 0° 166° (SSE) 3,210 7.7 -4.1°
